Location: Newark
(50.0953°N, 2.1719°E)
Time: 11:23:23
(UTC+00:00)

N. Korean satellite - Pass Details

Date: 23 January 2020
Orbit: 456 x 505 km, 97.2° (Epoch: 25 February)

Event Time Altitude Azimuth Distance (km) Brightness Sun altitude
Rises 04:59:18 0° 24° (NNE) 2,528 10.5 -25.0°
Reaches altitude 10° 05:01:39 10° 39° (NE) 1,654 9.7 -24.6°
Maximum altitude 05:04:33 23° 94° (E) 1,058 9.0 -24.2°
Drops below altitude 10° 05:07:29 10° 149° (SSE) 1,664 9.7 -23.7°
Sets 05:09:51 0° 164° (SSE) 2,549 10.5 -23.3°
